[[{"header":{"parameterUnit":"m.s-1","parameterCategory":1,"la1":30.2991,"la2":30.254,"lo1":-89.0895,"lo2":-89.0444,"dy":0.0017,"dx":0.0017,"nx":28,"ny":28,"refTime":"2024-08-17T03:00:00:Z","depth":0,"parameterNumber":2,"parameterNumberName":"U-component_of_WINDS"},"data":[0,0,0,0,0,0,0,0,0,0,0,0,0,0,0,0,0,0,0,0,0,0,0,0,0,0,0,0,0,0,0,0,0,0,0,0,0,0,0,0,0,0,0,0,0,0,0,0,0,0,0,0,0,0,0,0,0,0,2.4331,2.4332,0,2.4464,2.4465,2.4467,2.4444,2.4442,2.444,2.4437,2.4583,2.4589,2.4595,0,0,0,0,0,0,0,0,0,0,0,0,0,2.4068,2.4073,2.4331,2.4332,2.4334,2.4463,2.4465,2.4467,2.4445,2.4442,2.4439,2.4436,2.4581,2.4588,2.4595,0,0,0,0,0,0,0,0,0,0,0,0,0,2.419,2.4075,2.433,2.4338,2.434,2.4463,2.4465,2.4468,2.4445,2.4442,2.4438,2.4435,2.4579,2.4587,2.4596,2.4723,0,0,2.4624,2.4628,0,0,0,0,0,0,0,0,2.4183,2.42,2.4336,2.4338,2.434,2.4434,2.4426,2.4553,2.4446,2.4406,2.4437,2.4433,2.4537,2.4549,2.4582,2.4729,2.4736,2.4625,2.463,2.4634,2.4637,0,0,0,0,0,0,0,2.4175,2.4194,2.4384,2.4338,2.4341,2.4339,2.4352,2.445,2.449,2.4409,2.4408,2.4423,2.4538,2.4573,2.4585,2.4738,2.4625,2.4633,2.4638,2.4642,2.5,2.5004,0,0,0,0,0,0,2.4163,2.4187,2.4379,2.4388,2.4251,2.4346,2.4361,2.4407,2.4488,2.4497,2.4426,2.4422,2.4559,2.4575,2.459,2.4746,2.4634,2.4643,2.4648,2.4996,2.5001,2.5005,0,0,0,0,0,0,2.4157,2.418,2.4374,2.4287,2.4311,2.4354,2.4407,2.4412,2.4447,2.4501,2.4509,2.4455,2.4557,2.4577,2.469,2.4751,2.4647,2.4655,2.4991,2.4997,2.5003,2.5057,0,0,0,0,0,0,2.415,2.4178,2.4224,2.4288,2.4316,2.4469,2.441,2.4417,2.4462,2.4458,2.453,2.4539,2.4556,2.4677,2.4699,2.4761,2.4662,2.4986,2.4994,2.5001,2.505,2.5064,2.5076,0,0,0,0,0,2.414,2.4235,2.4226,2.425,2.4374,2.4472,2.4489,2.4504,2.4467,2.4516,2.455,2.4537,2.474,2.4688,2.4713,2.4779,2.4982,2.4992,2.5,2.5044,2.5062,2.5076,0,0,0,0,0,0,2.4179,2.4243,2.4234,2.4352,2.4406,2.4468,2.4529,2.4521,2.4589,2.4583,2.4601,2.4618,2.4733,2.4767,2.4709,2.4908,2.4857,2.4871,2.4881,2.4898,2.4911,2.4902,2.467,0,0,0,0,0,2.4201,2.4272,2.4326,2.4425,2.4452,2.4486,2.4529,2.4536,2.4595,2.4619,2.4662,2.4722,2.4799,2.485,2.4925,2.5054,2.5072,2.5113,2.5126,2.5136,2.515,2.5225,2.5244,2.5035,2.5035,2.5035,0,0,2.4248,2.4292,2.4336,2.4434,2.4477,2.4554,2.4506,2.4589,2.4647,2.4632,2.4741,2.4775,2.4844,2.4966,2.5022,2.4998,2.5211,2.5148,2.5156,2.5164,2.5236,2.5256,2.5273,2.5041,2.504,2.5039,0,0,2.4373,2.4412,2.45,2.4544,2.4609,2.4631,2.4652,2.4715,2.4737,2.4845,2.4837,2.4908,2.504,2.5091,2.5133,2.528,2.5271,2.5304,2.5373,2.5446,2.5463,2.5477,2.5533,2.5552,2.5316,2.5316,2.5316,0,2.4424,2.4536,2.4547,2.4631,2.4676,2.4664,2.4755,2.4798,2.4886,2.4919,2.489,2.5057,2.5102,2.5238,2.5274,2.5308,2.5336,2.5296,2.5459,2.5474,2.5488,2.5541,2.5561,2.532,2.532,2.5319,2.5319,0,2.4598,2.4676,2.474,2.4822,2.4874,2.4962,2.499,2.5042,2.5045,2.5071,2.5184,2.5238,2.5324,2.5356,2.5361,2.5494,2.5478,2.5453,2.5403,2.5511,2.5562,2.5582,2.5325,2.5324,2.5323,2.5322,0,0,2.4752,2.4839,2.4863,2.4901,2.4972,2.5035,2.5124,2.5205,2.5252,2.5313,2.539,2.5503,2.5482,2.5531,2.5541,2.5604,2.5721,2.5573,2.5575,2.5601,2.5876,2.5895,2.5918,2.5715,2.5718,2.5721,2.5871,0,2.4886,2.5039,2.5052,2.5192,2.5267,2.5257,2.5335,2.539,2.5417,2.5488,2.5519,2.56,2.5564,2.5594,2.5656,2.5693,2.5777,2.5682,2.5791,2.5795,2.5776,2.5944,2.5964,2.6103,2.589,2.5893,2.5896,0,2.5063,2.5127,2.5274,2.5337,2.5369,2.5438,2.5516,2.5582,2.5645,2.5661,2.5716,2.5718,2.5814,2.5757,2.5892,2.5827,2.5873,2.5898,2.5904,2.5917,2.5854,2.5964,2.6147,2.6169,2.5926,2.5924,2.5922,0,2.5165,2.5288,2.5392,2.5425,2.55,2.555,2.5584,2.5643,2.5693,2.5762,2.5794,2.5874,2.5919,2.5983,2.6008,2.5964,2.6143,2.6087,2.6162,2.6162,2.6202,2.6199,2.6397,2.6227,2.6226,2.6226,2.6225,0,2.5314,2.5406,2.5439,2.5503,2.5606,2.5622,2.5725,2.5757,2.581,2.5884,2.588,2.595,2.5977,2.6053,2.6074,2.6184,2.6204,2.6222,2.6227,2.6224,2.6222,2.6256,2.6248,2.6231,2.623,2.6229,2.6228,0,2.5446,2.5471,2.5585,2.5647,2.5665,2.5738,2.5793,2.5858,2.5884,2.5977,2.6,2.6043,2.6132,2.6163,2.6271,2.6285,2.6414,2.641,2.6392,2.6394,2.6468,2.6462,2.6696,2.6729,2.6534,2.6536,2.6538,0,2.5541,2.5611,2.568,2.5727,2.5763,2.584,2.589,2.5909,2.5962,2.604,2.6096,2.6183,2.6254,2.6397,2.6441,2.6525,2.6524,2.66,2.6537,2.6532,2.6529,2.6525,2.6534,2.6613,2.6615,2.6617,2.6618,0,2.5709,2.5718,2.5788,2.5864,2.5923,2.5984,2.6044,2.6084,2.6113,2.6173,2.6262,2.6317,2.6427,2.6516,2.6601,2.6641,2.6637,2.6637,2.666,2.6658,2.6647,2.6657,2.6428,2.6632,2.6631,2.663,2.6629,2.6629,2.5827,2.589,2.5948,2.6028,2.6074,2.613,2.6194,2.6228,2.6302,2.6391,2.6399,2.6496,2.6561,2.6675,2.6719,2.6798,2.6777,2.6808,2.6817,2.6825,2.6832,2.6631,2.6813,2.6813,2.6812,2.6812,2.6812,0,2.5997,2.6034,2.6107,2.6189,2.6253,2.6239,2.6305,2.636,2.6445,2.6504,2.6573,2.6678,2.6764,2.6814,2.6901,2.6955,2.6956,2.6978,2.6976,2.6986,2.6844,2.6817,2.6976,2.6976,2.6976,2.6976,2.6976,2.6976,2.6093,2.6199,2.6216,2.6346,2.6383,2.6477,2.6516,2.6569,2.6616,2.6732,2.6803,2.6833,2.6891,2.6982,2.7062,2.7074,2.7108,2.7133,2.7145,2.7012,2.6995,2.6979,2.6954,2.714,2.714,2.728,2.7281,2.7282]},{"header":{"parameterUnit":"m.s-1","parameterCategory":1,"la1":30.2991,"la2":30.254,"lo1":-89.0895,"lo2":-89.0444,"dy":0.0017,"dx":0.0017,"nx":28,"ny":28,"refTime":"2024-08-17T03:00:00:Z","depth":0,"parameterNumber":3,"parameterNumberName":"V-component_of_WINDS"},"data":[0,0,0,0,0,0,0,0,0,0,0,0,0,0,0,0,0,0,0,0,0,0,0,0,0,0,0,0,0,0,0,0,0,0,0,0,0,0,0,0,0,0,0,0,0,0,0,0,0,0,0,0,0,0,0,0,0,0,1.3788,1.3789,0,1.3875,1.3876,1.3877,1.3847,1.3845,1.3843,1.3841,1.393,1.3934,1.3938,0,0,0,0,0,0,0,0,0,0,0,0,0,1.3593,1.3597,1.3788,1.3789,1.379,1.3874,1.3876,1.3877,1.3847,1.3845,1.3843,1.384,1.3928,1.3933,1.3938,0,0,0,0,0,0,0,0,0,0,0,0,0,1.3678,1.3598,1.3788,1.3785,1.3786,1.3874,1.3876,1.3877,1.3848,1.3845,1.3842,1.3839,1.3927,1.3933,1.3939,1.4034,0,0,1.3958,1.3961,0,0,0,0,0,0,0,0,1.3674,1.3686,1.3785,1.3786,1.3787,1.3847,1.3839,1.393,1.3848,1.3824,1.3841,1.3838,1.3904,1.3912,1.3935,1.4038,1.4042,1.3958,1.3962,1.3965,1.3967,0,0,0,0,0,0,0,1.3668,1.3682,1.3822,1.3786,1.3787,1.3779,1.3788,1.3856,1.3879,1.3826,1.3824,1.3835,1.3904,1.3929,1.3937,1.4044,1.3958,1.3964,1.3968,1.397,1.4224,1.4227,0,0,0,0,0,0,1.3662,1.3677,1.3819,1.3825,1.3722,1.3785,1.3795,1.383,1.3879,1.3883,1.3837,1.3833,1.392,1.393,1.394,1.4051,1.3965,1.3971,1.3974,1.4221,1.4225,1.4228,0,0,0,0,0,0,1.3658,1.3675,1.3816,1.375,1.3768,1.3791,1.3831,1.3834,1.3858,1.3887,1.3891,1.3858,1.3918,1.3931,1.401,1.4054,1.3973,1.3979,1.4218,1.4222,1.4227,1.4276,0,0,0,0,0,0,1.3652,1.3673,1.3711,1.3751,1.3771,1.3886,1.3834,1.3837,1.3869,1.3865,1.3908,1.3912,1.3917,1.4001,1.4016,1.4061,1.3984,1.4214,1.422,1.4225,1.4271,1.4282,1.4291,0,0,0,0,0,1.3645,1.3722,1.3713,1.373,1.3819,1.3888,1.39,1.3904,1.3873,1.391,1.3927,1.3911,1.4047,1.4009,1.4026,1.4073,1.4211,1.4218,1.4225,1.4266,1.428,1.4291,0,0,0,0,0,0,1.3687,1.3728,1.3718,1.3811,1.3846,1.3883,1.393,1.3919,1.3964,1.3958,1.396,1.397,1.405,1.407,1.4027,1.4165,1.4124,1.4135,1.415,1.4163,1.4173,1.4165,1.3989,0,0,0,0,0,1.3707,1.3761,1.3793,1.3872,1.389,1.3907,1.3938,1.3937,1.3974,1.3989,1.4013,1.4049,1.4099,1.4132,1.4181,1.4274,1.428,1.4314,1.4324,1.4333,1.4341,1.4387,1.4401,1.4251,1.4251,1.425,0,0,1.3749,1.3778,1.3812,1.3881,1.3908,1.3962,1.392,1.398,1.4019,1.3998,1.4073,1.4092,1.4132,1.4217,1.4255,1.4235,1.4384,1.4341,1.4348,1.4352,1.4396,1.441,1.4422,1.4255,1.4254,1.4254,0,0,1.3852,1.3881,1.3947,1.3975,1.4017,1.4027,1.4043,1.4081,1.4092,1.4167,1.4151,1.4198,1.4286,1.4313,1.4339,1.4449,1.4433,1.4465,1.4518,1.4563,1.4574,1.4585,1.462,1.4633,1.4473,1.4473,1.4473,0,1.3899,1.398,1.3983,1.4043,1.4072,1.4055,1.412,1.4147,1.4203,1.4222,1.4199,1.4306,1.4333,1.4421,1.4448,1.447,1.4486,1.4459,1.4573,1.4583,1.4593,1.4626,1.464,1.4477,1.4476,1.4476,1.4476,0,1.4033,1.409,1.4138,1.419,1.4225,1.4288,1.4298,1.4333,1.4329,1.4341,1.4416,1.4446,1.4498,1.452,1.4517,1.4607,1.4593,1.4572,1.453,1.461,1.4642,1.4655,1.4481,1.448,1.4479,1.4478,0,0,1.4166,1.4217,1.4234,1.4256,1.4299,1.4342,1.4402,1.4453,1.4481,1.4519,1.4567,1.4641,1.462,1.4649,1.4649,1.4689,1.4768,1.4662,1.4662,1.4677,1.4864,1.4878,1.4893,1.4759,1.4762,1.4764,1.486,0,1.427,1.4376,1.4378,1.4475,1.4525,1.4507,1.4559,1.459,1.4603,1.4646,1.4659,1.4709,1.468,1.4696,1.4735,1.475,1.4805,1.4744,1.4802,1.4804,1.4789,1.4911,1.4926,1.5016,1.4873,1.4875,1.4876,0,1.4405,1.4446,1.4547,1.4579,1.46,1.4647,1.469,1.4733,1.4767,1.4772,1.4803,1.4796,1.4855,1.4813,1.4892,1.485,1.4874,1.4885,1.4888,1.4892,1.4843,1.4914,1.5045,1.5057,1.4897,1.4895,1.4893,0,1.4487,1.4567,1.4637,1.4656,1.4697,1.4729,1.4747,1.4778,1.4807,1.4845,1.4863,1.4909,1.4933,1.4967,1.4971,1.4941,1.505,1.5009,1.5054,1.5054,1.5076,1.5074,1.5209,1.5097,1.5096,1.5096,1.5096,0,1.4601,1.4662,1.4673,1.4716,1.4783,1.4785,1.4851,1.4867,1.4894,1.4937,1.4926,1.4967,1.4972,1.5014,1.5018,1.5081,1.5093,1.5097,1.5097,1.5096,1.5095,1.511,1.5103,1.51,1.5099,1.5098,1.5098,0,1.4703,1.4713,1.4787,1.4818,1.4827,1.4875,1.4901,1.4941,1.4951,1.5006,1.5019,1.5035,1.5083,1.5091,1.5149,1.5151,1.5225,1.522,1.5213,1.5212,1.5255,1.5249,1.5402,1.542,1.5299,1.53,1.5301,0,1.4773,1.482,1.4855,1.4883,1.4903,1.4949,1.4977,1.498,1.501,1.505,1.5084,1.513,1.5168,1.5245,1.5261,1.5303,1.5297,1.5348,1.5304,1.53,1.5294,1.529,1.5292,1.5356,1.5357,1.5358,1.5359,0,1.4896,1.4898,1.494,1.4982,1.5016,1.505,1.5082,1.5105,1.5112,1.5146,1.5194,1.5223,1.528,1.5325,1.5367,1.5384,1.5372,1.5373,1.5385,1.5383,1.5376,1.5377,1.5233,1.5369,1.5368,1.5367,1.5367,1.5366,1.4982,1.5021,1.5051,1.5096,1.512,1.515,1.5187,1.5201,1.5241,1.5287,1.5287,1.5339,1.5368,1.5422,1.5442,1.5482,1.5465,1.5484,1.5488,1.5492,1.5494,1.5372,1.549,1.5489,1.5489,1.5489,1.5489,0,1.5101,1.5119,1.5161,1.5205,1.524,1.5225,1.5259,1.5288,1.5335,1.5363,1.5399,1.5453,1.5496,1.5514,1.5556,1.5584,1.5579,1.5594,1.5591,1.5594,1.5508,1.5492,1.5597,1.5597,1.5597,1.5597,1.5597,1.5597,1.5167,1.523,1.5235,1.5309,1.5327,1.5377,1.5397,1.5423,1.5445,1.5505,1.5541,1.5552,1.5575,1.5618,1.5656,1.566,1.5674,1.5692,1.5693,1.5612,1.5601,1.559,1.5575,1.5696,1.5696,1.5775,1.5776,1.5776]}]]